Home > Weather > London > Past weeks

Flag for Canada Weather for the Past 2 Weeks in London, Ontario, Canada

Now
14 °F

Snow showers. Ice fog.


Feels Like: -3 °F
Forecast: 1 / 10 °F
Wind: 17 mph from North

Location: London Weather Station

Current Time: Feb 12, 2016 at 10:04:02 PM

Latest Report: Feb 12, 2016 at 9:00 PM


Visibility: 0 mi

Pressure: 30.02 "Hg

Humidity: 85%

Dew point: 10 °F

Location of LondonLocation

Historic Weather in London — Graph

°F

London Temperature Yesterday

Maximum temperature yesterday: 12 °F (at 12:00 AM)
Minimum temperature yesterday: 3 °F (at 10:00 PM)
Average temperature yesterday: 10 °F

High & Low Weather Summary for the Past Weeks

 TemperatureHumidityPressure
High57 °F (Feb 3, 1:00 PM)100% (Jan 31, 6:00 PM)30.35 "Hg (Jan 31, 6:00 PM)
Low3 °F (Feb 11, 10:00 PM)48% (Feb 3, 2:00 PM)29.48 "Hg (Feb 9, 5:00 AM)
Average30 °F82%29.89 "Hg
* Reported Jan 28 8:00 PM — Feb 12 8:00 PM, London, Weather by CustomWeather, © 2016

Note: Actual official high and low records may vary slightly from our data, if they occured in-between our weather recording intervals... More about our weather records

Advertising

London Weather History for the Previous 24 Hours

 ConditionsComfort  
Time TempWeatherWind HumidityBarometerVisibility
8:00 PM
Fri, Feb 12
14 °FSnow showers. Ice fog.12 mph92%29.98 "Hg1 mi
7:00 PM16 °FSnow flurries. Overcast.10 mph79%29.96 "Hg2 mi
6:00 PM16 °FPassing clouds.9 mph73%29.93 "Hg15 mi
5:00 PM18 °FPartly sunny.13 mph68%29.93 "Hg15 mi
4:00 PM18 °FSnow showers. Ice fog.13 mph93%29.93 "Hg1 mi
3:51 PM19 °FSnow showers. Ice fog.10 mph79%29.92 "Hg1 mi
3:02 PM19 °FSnow flurries. Ice fog.13 mph79%29.91 "Hg1 mi
2:00 PM19 °FSnow flurries. Overcast.16 mph79%29.92 "Hg1 mi
1:49 PM19 °FSnow flurries. Overcast.14 mph86%29.93 "Hg1 mi
1:00 PM19 °FSnow flurries. Overcast.15 mph79%29.95 "Hg1 mi
12:00 PM19 °FSnow flurries. Overcast.18 mph79%29.98 "Hg2 mi
11:04 AM18 °FSnow flurries. Overcast.17 mph79%30.01 "Hg2 mi
10:00 AM16 °FSnow flurries. Overcast.15 mph73%30.03 "Hg15 mi
9:00 AM14 °FOvercast.14 mph79%30.05 "Hg15 mi
8:00 AM12 °FOvercast.12 mph79%30.08 "Hg15 mi
7:00 AM9 °FOvercast.9 mph85%30.10 "Hg15 mi
6:00 AM7 °FMostly cloudy.6 mph85%30.13 "Hg15 mi
5:00 AM5 °FPassing clouds.9 mph85%30.14 "Hg15 mi
4:00 AM7 °FPassing clouds.9 mph78%30.15 "Hg15 mi
3:00 AM9 °FPassing clouds.9 mph72%30.17 "Hg15 mi
2:00 AM12 °FPassing clouds.9 mph67%30.18 "Hg15 mi
1:00 AM9 °FPassing clouds.7 mph72%30.21 "Hg15 mi
12:00 AM5 °FPassing clouds.7 mph78%30.23 "Hg15 mi
11:00 PM
Thu, Feb 11
7 °FPassing clouds.7 mph78%30.24 "Hg15 mi
10:00 PM3 °FPassing clouds.7 mph78%30.26 "Hg15 mi
Weather by CustomWeather, © 2016

See weather overviewHow to use our weather pages